Regional Weather Roundup
Issued by NWS

Home | Current Version | Previous Version | Graphics & Text | Print | Product List | Glossary On
Versions: 1 2 3 4 5 6 7 8 9 10 11 12 13 14 15 16 17 18 19 20 21 22 23 24 25 26 27 28 29 30 31 32 33 34 35 36 37 38 39 40 41 42 43 44 45 46 47 48 49 50
969
ASUS43 KDMX 211606
RWRIA

WEATHER ROUNDUP FOR IOWA
NATIONAL WEATHER SERVICE DES MOINES IA
1000 AM CST TUE NOV 21 2017

NOTE: "FAIR" INDICATES FEW OR NO CLOUDS BELOW 12,000 FEET WITH NO
SIGNIFICANT WEATHER AND/OR OBSTRUCTIONS TO VISIBILITY.

* - THESE STATIONS ARE NOT NWS STATIONS...THUS NOT UNDER NWS
QUALITY CONTROL.  THEY ALSO DO NOT REPORT WEATHER SUCH
AS PRECIPITATION OR FOG.

IAZ001>003-012>014-020>022-031>034-043>046-211700-
   NORTHWEST IOWA

CITY           SKY/WX    TMP DP  RH WIND       PRES   REMARKS
CARROLL *      SUNNY     27  12  54 NW24G33   30.11R WCI  12
CHEROKEE *     SUNNY     24  11  58 N23G30    30.16R WCI   8
DENISON *      SUNNY     27  12  54 N28       30.14R WCI  11
LE MARS *      SUNNY     23  10  58 NW21G29   30.21R WCI   8
ORANGE CITY *  SUNNY     25  12  58 NW16G31   30.17R WCI  12
SHELDON *      MOSUNNY   23  10  58 NW25G32   30.14R WCI   7
SIOUX CITY     SUNNY     23   9  55 NW26G38   30.21R WCI   6
SPENCER        SUNNY     24  10  55 NW32G39   30.12R WCI   6
STORM LAKE *   SUNNY     23  12  63 N29G35    30.11R WCI   6
$$

IAZ055>058-069>071-079>083-090>094-211700-
   SOUTHWEST IOWA

CITY           SKY/WX    TMP DP  RH WIND       PRES   REMARKS
ATLANTIC *     CLOUDY    34  14  44 NW28G37   30.09R WCI  20
AUDUBON *      SUNNY     30  12  47 N20G35    30.11R WCI  18
CLARINDA *     CLOUDY    43  25  49 N24G32      N/A
COUNCIL BLFS * MOSUNNY   32  14  47 N26G37    30.13R WCI  18
CRESTON *      CLOUDY    37  18  44 N25G38    30.05R WCI  26
HARLAN  *      SUNNY     30  12  47 N29G39    30.15R WCI  15
LAMONI         CLOUDY    42  23  46 NW20G29   30.00R
RED OAK *      CLOUDY    39  14  35 N23G35    30.11R WCI  29
SHENANDOAH *   CLOUDY    43  16  33 N26G39    30.10R
$$

IAZ047>049-059>061-072>074-084-211700-
   CENTRAL IOWA

CITY           SKY/WX    TMP DP  RH WIND       PRES   REMARKS
AMES           SUNNY     30  16  56 N26G36    30.06R WCI  16
ANKENY *       CLOUDY    36  14  41 NW21G35   30.05R WCI  24
BOONE *        SUNNY     30  14  51 N22G31    30.04R WCI  17
CHARITON *     CLOUDY    41  18  38 NW22G35   29.99R
DES MOINES     CLOUDY    37  15  40 NW21G33   30.03R WCI  26
GRINNELL*      PTSUNNY   36  21  53 NW26      30.00R WCI  24
KNOXVILLE *    CLOUDY    39  16  38 N24G33    29.99R WCI  28
MARSHALLTOWN   CLOUDY    31  16  54 NW25G33   30.01R WCI  17
NEWTON *       CLOUDY    34  18  51 NW24G37   30.01R WCI  21
PELLA *        CLOUDY    40  21  47 N15G24    30.01R WCI  32
PERRY *          N/A     31  13  47 N26G32    30.08R WCI  17
$$

IAZ004>006-015-016-023>025-035-036-211700-
   NORTH CENTRAL IOWA

CITY           SKY/WX    TMP DP  RH WIND       PRES   REMARKS
ALGONA *       PTSUNNY   25  14  63 NW32G40   30.07R WCI   7
CLARION *      MOSUNNY   27  14  59 NW29G44   30.06R WCI  11
ESTHERVILLE    MOSUNNY   22  12  65 NW32G43   30.10R WCI   3
FORT DODGE *   SUNNY     26  13  57 NW20G26   30.09R WCI  12
MASON CITY     CLOUDY    25  13  60 NW31G43   30.03R WCI   8
FOREST CITY *  CLOUDY    27  16  63 NW23G33   30.03R WCI  12
WEBSTER CITY * SUNNY     27  14  59 NW30G38   30.05R WCI  10
IOWA FALLS *     N/A     28  16  60 NW30G36   30.03R WCI  12
$$

IAZ007>011-017>019-026>030-037>042-050>054-066-211700-
   NORTHEAST IOWA

CITY           SKY/WX    TMP DP  RH WIND       PRES   REMARKS
CEDAR RAPIDS   CLOUDY    34  19  54 NW23G30   29.95R WCI  22
CHARLES CITY * CLOUDY    28  14  54 NW25G33   29.99R WCI  14
CLINTON *      CLOUDY    37  21  52 NW23      29.90R WCI  26
DECORAH *      CLOUDY    28  18  64 NW21G32   29.92R WCI  15
DUBUQUE        CLOUDY    31  17  56 NW23G30   29.90R WCI  18
MONTICELLO *   CLOUDY    32  18  55 NW22G33   29.93R WCI  19
OELWEIN *      CLOUDY    28  18  64 NW33G41   29.96R WCI  12
WATERLOO       MOSUNNY   28  14  55 NW24G33   29.98R WCI  14
$$

IAZ064-065-067-068-078-211700-
   EAST CENTRAL IOWA

CITY           SKY/WX    TMP DP  RH WIND       PRES   REMARKS
DAVENPORT      PTSUNNY   38  25  59 NW12      29.93R WCI  30
IOWA CITY      CLOUDY    40  21  46 NW18G30   29.97R WCI  31
MT. PLEASANT * DRIZZLE   37  27  67 NW12G17   29.95R WCI  29
MUSCATINE *    CLOUDY    39  23  52 NW21G29   29.94R WCI  29
QUAD CITIES    CLOUDY    40  24  53 NW17G26   29.91R WCI  31
$$

IAZ062-063-075>077-085>089-095>099-211700-
   SOUTHEAST IOWA

CITY           SKY/WX    TMP DP  RH WIND       PRES   REMARKS
BURLINGTON     CLOUDY    39  24  55 NW13G25   29.94R WCI  31
FAIRFIELD *    PTSUNNY   39  23  52 NW25G32   29.96R WCI  28
FORT MADISON * PTSUNNY   39  25  56 N16G25    29.95R WCI  30
KEOKUK *       CLOUDY    41  23  48 NW15G28   29.95R
OSKALOOSA *    PTSUNNY   39  23  52 N24       29.98R WCI  29
OTTUMWA        CLOUDY    40  24  53 NW22G31   29.97R WCI  30
WASHINGTON *   CLOUDY    39  27  60 NW15      29.96R WCI  31
$$

ABBREVIATIONS USED IN REMARKS
   TC - TEMPERATURES IN CELSIUS
  WCI - WIND CHILL INDEX
   HX - HEAT INDEX
  VSB - VISIBILITY
$$





USA.gov is the U.S. government's official web portal to all federal, state and local government web resources and services.